User: anonymous   Login
Location: Brno
(49.2000°N, 16.6330°E)
Time: 23:42:07
(UTC+02:00)
Language:

Iridium 2 - Orbit

View from above orbital plane
View from above orbital plane
View from above satellite
View from above satellite

Ground track
Ground track

The orbit data is extracted from the following two-line orbital elements,

1 25527U 98066A   14295.41491307  .00012730  00000-0  80282-3 0  4115
2 25527 085.5373 241.6676 0012851 050.5861 092.5194 15.08941352871305
Epoch (UTC): 22 October 2014 09:57:28
Eccentricity: 0.0012851
inclination: 85.5373°
perigee height: 530 km
apogee height: 548 km
right ascension of ascending node: 241.6676°
argument of perigee: 50.5861°
revolutions per day: 15.08941352
mean anomaly at epoch: 92.5194°
orbit number at epoch: 87130

The dashed part of the orbit path shows where the satellite is in the earth's shadow,  

DLR